Desroches Airport

Jump to: basic info | weather | runways | comments

Related pages: nearby airports | nearby navaids | notams | map

Basic information (top)

Codes: DES FSDR
Location: lon -5.696700, lat 53.655800, elev 10 ft / 3 m msl
Status: small_airport
Scheduled airline service: no
Links: Wikipedia Mobile

Weather (top)

Current conditions for Seychelles International Airport 127nm (236km) ENE (rec'd 2015/03/28 11:00Z):

FSIA 281100Z 11005KT 9999 BKN020 31/25 Q1008 NOSIG

Airport forecast for Seychelles International Airport 127nm (236km) ENE (rec'd 2015/03/28 06:00Z):

TAF FSIA 280352Z 2806/2906 34008KT 9999 SCT018 
      BECMG 2816/2818 VRB03KT

Runways (top)

12/30: 4,531 x 33 ft (1,381 x 10 m) — paved — not lighted

Latest comments (top)

No comments yet for Desroches Airport

More... (top)

See also NOTAMs and nearby airports and navaids, or visit the Desroches Airport page at the main OurAirports website..